Location: The Saddle
(36.8333°N, 80.3417°W)
Time: 19:34:06
(UTC-05:00)

A-11 Canister half - Pass Details

Date: 19 December 2023
Orbit: 1526 x 1682 km, 47.3° (Epoch: 25 February)

Event Time Altitude Azimuth Distance (km) Brightness Sun altitude
Rises 22:15:15 0° 302° (WNW) 4,936 12.1 -60.3°
Reaches altitude 10° 22:18:29 10° 299° (WNW) 3,940 11.4 -60.9°
Enters shadow 22:20:17 17° 296° (WNW) 3,402 11.0 -61.3°
Maximum altitude 22:28:19 59° 223° (SW) 1,861 - -62.8°
Drops below altitude 10° 22:37:54 10° 147° (SSE) 3,836 - -64.5°
Sets 22:41:01 0° 143° (SE) 4,799 - -65.1°
